Regional Weather Roundup
Issued by NWS

Home | Current Version | Previous Version | Graphics & Text | Print | Product List | Glossary On
Versions: 1 2 3 4 5 6 7 8 9 10 11 12 13 14 15 16 17 18 19 20 21 22 23 24 25 26 27
000
ASUS45 KSLC 260210
RWRUT

UTAH REGIONAL WEATHER ROUNDUP
NATIONAL WEATHER SERVICE SALT LAKE CITY UT
800 PM MDT SAT MAR 25 2017

UTZ001>011-023>025-260300-

NORTHERN UTAH

CITY           SKY/WX    TMP DP  RH WIND       PRES   REMARKS
BRIGHAM CITY     N/A     45  37  72 CALM      30.01R
HILL AFB       CLOUDY    41  38  90 SW6       30.00R
LOGAN          PTCLDY    44  38  79 S7        29.99R
OGDEN          CLOUDY    40  38  93 S5        30.00R
SALT LAKE CITY MOCLDY    43  39  86 W5        30.01R
WENDOVER       CLOUDY    49  36  61 S7        30.01R
HEBER CITY     CLOUDY    39  36  87 SW7       29.95R WCI  34

$$

UTZ011>015-024>027-260300-

CENTRAL/NORTHEAST UTAH

CITY           SKY/WX    TMP DP  RH WIND       PRES   REMARKS
PROVO AIRPORT  LGT RAIN  43  37  81 NW14      30.02R
MOAB/CANYONLAN CLOUDY    51  41  68 N10       29.85R
DELTA          CLOUDY    39  37  93 N15       30.01R WCI  31
PRICE          CLOUDY    43  33  68 N9        29.91R
RICHFIELD      CLOUDY    43  41  93 N3        30.00R
ROOSEVELT      CLOUDY    46  37  71 W13       29.90S
VERNAL         CLOUDY    46  38  73 CALM      29.89S

$$

UTZ013>016-019>022-027-260300-

SOUTHERN UTAH

CITY           SKY/WX    TMP DP  RH WIND       PRES   REMARKS
BRYCE CANYON   MOCLDY    36  31  82 NW12      29.96R WCI  28
CEDAR CITY     LGT RAIN  38  36  92 NE3       30.00R
MILFORD        CLOUDY    43  38  82 N14       30.01R
ST GEORGE      CLOUDY    55  40  56 NW7       29.96R
HANKSVILLE     MOCLDY    50  37  62 N9        29.87S
KANAB          CLOUDY    48  36  61 W7G14     30.01R
BLANDING       CLOUDY    46  32  58 CALM      30.00R

$$

REGIONAL REPORTS     COLORADO/ARIZONA

CITY           SKY/WX    TMP DP  RH WIND       PRES   REMARKS
CRAIG, CO      CLOUDY    48  31  51 SW17G29   29.90R
GRAND JUNCTION CLOUDY    51  41  68 NE8       29.87S
RIFLE, CO      CLOUDY    52  32  46 CALM      29.91R
MONTROSE, CO   CLOUDY    51  28  41 N15       29.90S
CORTEZ, CO     CLOUDY    48  34  58 W26G33    29.93R
COLORADO CITY    N/A     46  39  76 W8        30.01R
PAGE, AZ       CLOUDY    56  38  50 W14G24    29.89R
GRAND CANYON   PTCLDY    45  29  53 VRB7      29.98R
KINGMAN, AZ    PTCLDY    59  19  21 N10       29.95R
FLAGSTAFF, AZ  PTCLDY    36  32  85 SW10      30.01F WCI  28

$$

REGIONAL REPORTS    NEVADA/IDAHO/WYOMING

CITY           SKY/WX    TMP DP  RH WIND       PRES   REMARKS
LAS VEGAS, NV  PTCLDY    67  35  30 W10       29.91R
ELY, NY        CLOUDY    40  33  76 N6        30.03R
ELKO, NV       CLOUDY    48  25  40 NW6       30.01R
POCATELLO, ID  PTCLDY    45  29  53 SW14      29.98R
BURLEY, ID     CLEAR     45  27  49 W9        29.99R
FORT BRIDGER,  RAIN      37  37 100 W14       29.98S WCI  28
EVANSTON, WY   MIX PCPN  34  32  92 N5        29.97R FOG     WCI  30
ROCK SPRINGS,  LGT RAIN  39  35  86 W9        29.92R WCI  33
KEMMERER, WY     N/A     34  30  86 NW14      29.95R WCI  24

$$




USA.gov is the U.S. government's official web portal to all federal, state and local government web resources and services.